Year,Month,Day,Hour,Minute,Value (Times are PST for temperature in C)
2006,04,22,00,00,4.80
2006,04,22,00,01,4.70
2006,04,22,00,02,4.70
2006,04,22,00,03,4.60
2006,04,22,00,04,4.60
2006,04,22,00,05,4.60
2006,04,22,00,06,4.60
2006,04,22,00,07,4.60
2006,04,22,00,08,4.50
2006,04,22,00,09,4.50
2006,04,22,00,10,4.50
2006,04,22,00,11,4.40
2006,04,22,00,12,4.40
2006,04,22,00,13,4.40
2006,04,22,00,14,4.40
2006,04,22,00,15,4.50
2006,04,22,00,16,4.50
2006,04,22,00,17,4.50
2006,04,22,00,18,4.60
2006,04,22,00,19,4.60
2006,04,22,00,20,4.70
2006,04,22,00,21,4.70
2006,04,22,00,22,4.80
2006,04,22,00,23,4.90
2006,04,22,00,24,4.90
2006,04,22,00,25,4.90
2006,04,22,00,26,4.80
2006,04,22,00,27,4.60
2006,04,22,00,28,4.50
2006,04,22,00,29,4.50
2006,04,22,00,30,4.40
2006,04,22,00,31,4.40
2006,04,22,00,32,4.30
2006,04,22,00,33,4.20
2006,04,22,00,34,4.10
2006,04,22,00,35,4.10
2006,04,22,00,36,4.10
2006,04,22,00,37,4.00
2006,04,22,00,38,4.00
2006,04,22,00,39,4.00
2006,04,22,00,40,4.00
2006,04,22,00,41,4.10
2006,04,22,00,42,4.10
2006,04,22,00,43,4.20
2006,04,22,00,44,4.20
2006,04,22,00,45,4.20
2006,04,22,00,46,4.30
2006,04,22,00,47,4.40
2006,04,22,00,48,4.40
2006,04,22,00,49,4.50
2006,04,22,00,50,4.60
2006,04,22,00,51,4.60
2006,04,22,00,52,4.50
2006,04,22,00,53,4.30
2006,04,22,00,54,4.00
2006,04,22,00,55,3.80
2006,04,22,00,56,3.70
2006,04,22,00,57,3.60
2006,04,22,00,58,3.50
2006,04,22,00,59,3.50
2006,04,22,01,00,3.60
2006,04,22,01,01,3.60
2006,04,22,01,02,3.80
2006,04,22,01,03,3.80
2006,04,22,01,04,3.90
2006,04,22,01,05,4.00
2006,04,22,01,06,4.00
2006,04,22,01,07,4.10
2006,04,22,01,08,4.10
2006,04,22,01,09,4.10
2006,04,22,01,10,4.10
2006,04,22,01,11,4.00
2006,04,22,01,12,3.90
2006,04,22,01,13,3.80
2006,04,22,01,14,3.60
2006,04,22,01,15,3.60
2006,04,22,01,16,3.50
2006,04,22,01,17,3.50
2006,04,22,01,18,3.50
2006,04,22,01,19,3.30
2006,04,22,01,20,3.20
2006,04,22,01,21,3.20
2006,04,22,01,22,3.10
2006,04,22,01,23,3.20
2006,04,22,01,24,3.30
2006,04,22,01,25,3.40
2006,04,22,01,26,3.50
2006,04,22,01,27,3.60
2006,04,22,01,28,3.70
2006,04,22,01,29,3.80
2006,04,22,01,30,3.80
2006,04,22,01,31,3.80
2006,04,22,01,32,3.90
2006,04,22,01,33,3.90
2006,04,22,01,34,3.80
2006,04,22,01,35,3.60
2006,04,22,01,36,3.40
2006,04,22,01,37,3.30
2006,04,22,01,38,3.20
2006,04,22,01,39,3.10
2006,04,22,01,40,2.90
2006,04,22,01,41,2.90
2006,04,22,01,42,2.90
2006,04,22,01,43,2.90
2006,04,22,01,44,2.90
2006,04,22,01,45,2.90
2006,04,22,01,46,3.10
2006,04,22,01,47,3.10
2006,04,22,01,48,3.20
2006,04,22,01,49,3.30
2006,04,22,01,50,3.40
2006,04,22,01,51,3.50
2006,04,22,01,52,3.50
2006,04,22,01,53,3.60
2006,04,22,01,54,3.70
2006,04,22,01,55,3.80
2006,04,22,01,56,3.80
2006,04,22,01,57,3.80
2006,04,22,01,58,3.80
2006,04,22,01,59,3.60
2006,04,22,02,00,3.40
2006,04,22,02,01,3.30
2006,04,22,02,02,3.20
2006,04,22,02,03,3.00
2006,04,22,02,04,2.90
2006,04,22,02,05,2.90
2006,04,22,02,06,2.90
2006,04,22,02,07,2.90
2006,04,22,02,08,2.90
2006,04,22,02,09,2.90
2006,04,22,02,10,2.90
2006,04,22,02,11,2.90
2006,04,22,02,12,2.90
2006,04,22,02,13,2.80
2006,04,22,02,14,2.80
2006,04,22,02,15,2.70
2006,04,22,02,16,2.70
2006,04,22,02,17,2.70
2006,04,22,02,18,2.70
2006,04,22,02,19,2.80
2006,04,22,02,20,2.90
2006,04,22,02,21,3.00
2006,04,22,02,22,3.20
2006,04,22,02,23,3.20
2006,04,22,02,24,3.30
2006,04,22,02,25,3.40
2006,04,22,02,26,3.30
2006,04,22,02,27,3.20
2006,04,22,02,28,3.10
2006,04,22,02,29,2.90
2006,04,22,02,30,2.80
2006,04,22,02,31,2.70
2006,04,22,02,32,2.60
2006,04,22,02,33,2.60
2006,04,22,02,34,2.60
2006,04,22,02,35,2.50
2006,04,22,02,36,2.60
2006,04,22,02,37,2.60
2006,04,22,02,38,2.70
2006,04,22,02,39,2.80
2006,04,22,02,40,2.90
2006,04,22,02,41,2.90
2006,04,22,02,42,3.00
2006,04,22,02,43,3.10
2006,04,22,02,44,3.10
2006,04,22,02,45,3.20
2006,04,22,02,46,3.30
2006,04,22,02,47,3.30
2006,04,22,02,48,3.10
2006,04,22,02,49,2.90
2006,04,22,02,50,2.70
2006,04,22,02,51,2.40
2006,04,22,02,52,2.30
2006,04,22,02,53,2.20
2006,04,22,02,54,2.20
2006,04,22,02,55,2.20
2006,04,22,02,56,2.20
2006,04,22,02,57,2.20
2006,04,22,02,58,2.20
2006,04,22,02,59,2.20
2006,04,22,03,00,2.30
2006,04,22,03,01,2.30
2006,04,22,03,02,2.30
2006,04,22,03,03,2.40
2006,04,22,03,04,2.40
2006,04,22,03,05,2.40
2006,04,22,03,06,2.40
2006,04,22,03,07,2.40
2006,04,22,03,08,2.40
2006,04,22,03,09,2.40
2006,04,22,03,10,2.30
2006,04,22,03,11,2.30
2006,04,22,03,12,2.30
2006,04,22,03,13,2.40
2006,04,22,03,14,2.40
2006,04,22,03,15,2.40
2006,04,22,03,16,2.40
2006,04,22,03,17,2.40
2006,04,22,03,18,2.50
2006,04,22,03,19,2.50
2006,04,22,03,20,2.40
2006,04,22,03,21,2.20
2006,04,22,03,22,2.20
2006,04,22,03,23,2.20
2006,04,22,03,24,2.10
2006,04,22,03,25,2.10
2006,04,22,03,26,2.10
2006,04,22,03,27,2.10
2006,04,22,03,28,2.10
2006,04,22,03,29,2.20
2006,04,22,03,30,2.20
2006,04,22,03,31,2.20
2006,04,22,03,32,2.20
2006,04,22,03,33,2.30
2006,04,22,03,34,2.40
2006,04,22,03,35,2.40
2006,04,22,03,36,2.40
2006,04,22,03,37,2.50
2006,04,22,03,38,2.50
2006,04,22,03,39,2.50
2006,04,22,03,40,2.50
2006,04,22,03,41,2.50
2006,04,22,03,42,2.40
2006,04,22,03,43,2.40
2006,04,22,03,44,2.30
2006,04,22,03,45,2.30
2006,04,22,03,46,2.30
2006,04,22,03,47,2.20
2006,04,22,03,48,2.20
2006,04,22,03,49,2.20
2006,04,22,03,50,2.10
2006,04,22,03,51,2.00
2006,04,22,03,52,2.00
2006,04,22,03,53,1.90
2006,04,22,03,54,1.90
2006,04,22,03,55,1.80
2006,04,22,03,56,1.80
2006,04,22,03,57,1.80
2006,04,22,03,58,1.80
2006,04,22,03,59,1.80
2006,04,22,04,00,1.70
2006,04,22,04,01,1.70
2006,04,22,04,02,1.70
2006,04,22,04,03,1.70
2006,04,22,04,04,1.70
2006,04,22,04,05,1.70
2006,04,22,04,06,1.70
2006,04,22,04,07,1.80
2006,04,22,04,08,1.80
2006,04,22,04,09,1.90
2006,04,22,04,10,1.90
2006,04,22,04,11,2.00
2006,04,22,04,12,2.10
2006,04,22,04,13,2.10
2006,04,22,04,14,2.20
2006,04,22,04,15,2.20
2006,04,22,04,16,2.20
2006,04,22,04,17,2.20
2006,04,22,04,18,2.20
2006,04,22,04,19,2.20
2006,04,22,04,20,2.20
2006,04,22,04,21,2.10
2006,04,22,04,22,2.10
2006,04,22,04,23,2.10
2006,04,22,04,24,2.10
2006,04,22,04,25,2.10
2006,04,22,04,26,2.10
2006,04,22,04,27,2.20
2006,04,22,04,28,2.20
2006,04,22,04,29,2.10
2006,04,22,04,30,2.10
2006,04,22,04,31,2.00
2006,04,22,04,32,1.90
2006,04,22,04,33,1.90
2006,04,22,04,34,1.90
2006,04,22,04,35,1.90
2006,04,22,04,36,2.00
2006,04,22,04,37,2.00
2006,04,22,04,38,2.10
2006,04,22,04,39,2.10
2006,04,22,04,40,2.10
2006,04,22,04,41,2.10
2006,04,22,04,42,2.10
2006,04,22,04,43,2.10
2006,04,22,04,44,2.00
2006,04,22,04,45,2.00
2006,04,22,04,46,2.00
2006,04,22,04,47,1.90
2006,04,22,04,48,1.90
2006,04,22,04,49,1.80
2006,04,22,04,50,1.80
2006,04,22,04,51,1.80
2006,04,22,04,52,1.80
2006,04,22,04,53,1.70
2006,04,22,04,54,1.70
2006,04,22,04,55,1.70
2006,04,22,04,56,1.80
2006,04,22,04,57,1.80
2006,04,22,04,58,2.00
2006,04,22,04,59,2.10
2006,04,22,05,00,2.20
2006,04,22,05,01,2.30
2006,04,22,05,02,2.40
2006,04,22,05,03,2.50
2006,04,22,05,04,2.50
2006,04,22,05,05,2.60
2006,04,22,05,06,2.70
2006,04,22,05,07,2.70
2006,04,22,05,08,2.80
2006,04,22,05,09,2.90
2006,04,22,05,10,2.90
2006,04,22,05,11,2.90
2006,04,22,05,12,2.90
2006,04,22,05,13,2.90
2006,04,22,05,14,2.90
2006,04,22,05,15,2.90
2006,04,22,05,16,2.90
2006,04,22,05,17,2.90
2006,04,22,05,18,2.90
2006,04,22,05,19,2.90
2006,04,22,05,20,2.90
2006,04,22,05,21,3.00
2006,04,22,05,22,3.10
2006,04,22,05,23,3.20
2006,04,22,05,24,3.30
2006,04,22,05,25,3.30
2006,04,22,05,26,3.40
2006,04,22,05,27,3.40
2006,04,22,05,28,3.50
2006,04,22,05,29,3.50
2006,04,22,05,30,3.50
2006,04,22,05,31,3.50
2006,04,22,05,32,3.50
2006,04,22,05,33,3.40
2006,04,22,05,34,3.40
2006,04,22,05,35,3.40
2006,04,22,05,36,3.40
2006,04,22,05,37,3.40
2006,04,22,05,38,3.50
2006,04,22,05,39,3.50
2006,04,22,05,40,3.50
2006,04,22,05,41,3.40
2006,04,22,05,42,3.40
2006,04,22,05,43,3.40
2006,04,22,05,44,3.40
2006,04,22,05,45,3.30
2006,04,22,05,46,3.30
2006,04,22,05,47,3.30
2006,04,22,05,48,3.20
2006,04,22,05,49,3.10
2006,04,22,05,50,3.10
2006,04,22,05,51,3.00
2006,04,22,05,52,2.90
2006,04,22,05,53,2.90
2006,04,22,05,54,2.80
2006,04,22,05,55,2.80
2006,04,22,05,56,2.70
2006,04,22,05,57,2.80
2006,04,22,05,58,2.80
2006,04,22,05,59,2.80
2006,04,22,06,00,2.80
2006,04,22,06,01,2.80
2006,04,22,06,02,2.80
2006,04,22,06,03,2.80
2006,04,22,06,04,2.80
2006,04,22,06,05,2.70
2006,04,22,06,06,2.70
2006,04,22,06,07,2.70
2006,04,22,06,08,2.70
2006,04,22,06,09,2.70
2006,04,22,06,10,2.70
2006,04,22,06,11,2.60
2006,04,22,06,12,2.60
2006,04,22,06,13,2.50
2006,04,22,06,14,2.50
2006,04,22,06,15,2.50
2006,04,22,06,16,2.50
2006,04,22,06,17,2.50
2006,04,22,06,18,2.50
2006,04,22,06,19,2.50
2006,04,22,06,20,2.50
2006,04,22,06,21,2.60
2006,04,22,06,22,2.60
2006,04,22,06,23,2.60
2006,04,22,06,24,2.60
2006,04,22,06,25,2.60
2006,04,22,06,26,2.70
2006,04,22,06,27,2.70
2006,04,22,06,28,2.70
2006,04,22,06,29,2.70
2006,04,22,06,30,2.70
2006,04,22,06,31,2.70
2006,04,22,06,32,2.70
2006,04,22,06,33,2.70
2006,04,22,06,34,2.70
2006,04,22,06,35,2.70
2006,04,22,06,36,2.70
2006,04,22,06,37,2.70
2006,04,22,06,38,2.70
2006,04,22,06,39,2.70
2006,04,22,06,40,2.70
2006,04,22,06,41,2.70
2006,04,22,06,42,2.70
2006,04,22,06,43,2.80
2006,04,22,06,44,2.80
2006,04,22,06,45,2.80
2006,04,22,06,46,2.90
2006,04,22,06,47,3.00
2006,04,22,06,48,3.10
2006,04,22,06,49,3.20
2006,04,22,06,50,3.20
2006,04,22,06,51,3.30
2006,04,22,06,52,3.30
2006,04,22,06,53,3.30
2006,04,22,06,54,3.30
2006,04,22,06,55,3.40
2006,04,22,06,56,3.40
2006,04,22,06,57,3.40
2006,04,22,06,58,3.50
2006,04,22,06,59,3.40
2006,04,22,07,00,3.30
2006,04,22,07,01,3.30
2006,04,22,07,02,3.20
2006,04,22,07,03,3.10
2006,04,22,07,04,3.10
2006,04,22,07,05,3.10
2006,04,22,07,06,3.10
2006,04,22,07,07,3.10
2006,04,22,07,08,3.10
2006,04,22,07,09,3.20
2006,04,22,07,10,3.20
2006,04,22,07,11,3.20
2006,04,22,07,12,3.30
2006,04,22,07,13,3.30
2006,04,22,07,14,3.30
2006,04,22,07,15,3.30
2006,04,22,07,16,3.50
2006,04,22,07,17,3.60
2006,04,22,07,18,3.70
2006,04,22,07,19,3.70
2006,04,22,07,20,3.70
2006,04,22,07,21,3.60
2006,04,22,07,22,3.60
2006,04,22,07,23,3.50
2006,04,22,07,24,3.60
2006,04,22,07,25,3.60
2006,04,22,07,26,3.60
2006,04,22,07,27,3.70
2006,04,22,07,28,3.70
2006,04,22,07,29,3.80
2006,04,22,07,30,3.90
2006,04,22,07,31,4.00
2006,04,22,07,32,4.10
2006,04,22,07,33,4.20
2006,04,22,07,34,4.30
2006,04,22,07,35,4.40
2006,04,22,07,36,4.50
2006,04,22,07,37,4.60
2006,04,22,07,38,4.60
2006,04,22,07,39,4.60
2006,04,22,07,40,4.80
2006,04,22,07,41,4.90
2006,04,22,07,42,4.90
2006,04,22,07,43,5.00
2006,04,22,07,44,5.10
2006,04,22,07,45,5.10
2006,04,22,07,46,5.10
2006,04,22,07,47,5.20
2006,04,22,07,48,5.20
2006,04,22,07,49,5.30
2006,04,22,07,50,5.30
2006,04,22,07,51,5.40
2006,04,22,07,52,5.40
2006,04,22,07,53,5.50
2006,04,22,07,54,5.50
2006,04,22,07,55,5.60
2006,04,22,07,56,5.70
2006,04,22,07,57,5.70
2006,04,22,07,58,5.70
2006,04,22,07,59,5.80
2006,04,22,08,00,5.80
2006,04,22,08,01,5.80
2006,04,22,08,02,5.80
2006,04,22,08,03,5.80
2006,04,22,08,04,5.90
2006,04,22,08,05,5.90
2006,04,22,08,06,6.00
2006,04,22,08,07,6.00
2006,04,22,08,08,6.00
2006,04,22,08,09,6.10
2006,04,22,08,10,6.10
2006,04,22,08,11,6.10
2006,04,22,08,12,6.20
2006,04,22,08,13,6.20
2006,04,22,08,14,6.20
2006,04,22,08,15,6.30
2006,04,22,08,16,6.30
2006,04,22,08,17,6.30
2006,04,22,08,18,6.20
2006,04,22,08,19,6.20
2006,04,22,08,20,6.20
2006,04,22,08,21,6.20
2006,04,22,08,22,6.20
2006,04,22,08,23,6.40
2006,04,22,08,24,6.50
2006,04,22,08,25,6.60
2006,04,22,08,26,6.60
2006,04,22,08,27,6.60
2006,04,22,08,28,6.70
2006,04,22,08,29,6.70
2006,04,22,08,30,6.80
2006,04,22,08,31,6.90
2006,04,22,08,32,7.00
2006,04,22,08,33,7.10
2006,04,22,08,34,7.20
2006,04,22,08,35,7.30
2006,04,22,08,36,7.30
2006,04,22,08,37,7.40
2006,04,22,08,38,7.50
2006,04,22,08,39,7.60
2006,04,22,08,40,7.60
2006,04,22,08,41,7.60
2006,04,22,08,42,7.60
2006,04,22,08,43,7.70
2006,04,22,08,44,7.70
2006,04,22,08,45,7.70
2006,04,22,08,46,7.80
2006,04,22,08,47,7.90
2006,04,22,08,48,7.90
2006,04,22,08,49,7.90
2006,04,22,08,50,7.90
2006,04,22,08,51,7.90
2006,04,22,08,52,8.00
2006,04,22,08,53,8.00
2006,04,22,08,54,8.10
2006,04,22,08,55,8.10
2006,04,22,08,56,8.10
2006,04,22,08,57,8.20
2006,04,22,08,58,8.20
2006,04,22,08,59,8.10
2006,04,22,09,00,8.10
2006,04,22,09,01,8.10
2006,04,22,09,02,8.20
2006,04,22,09,03,8.20
2006,04,22,09,04,8.20
2006,04,22,09,05,8.30
2006,04,22,09,06,8.30
2006,04,22,09,07,8.40
2006,04,22,09,08,8.40
2006,04,22,09,09,8.40
2006,04,22,09,10,8.40
2006,04,22,09,11,8.50
2006,04,22,09,12,8.40
2006,04,22,09,13,8.40
2006,04,22,09,14,8.40
2006,04,22,09,15,8.50
2006,04,22,09,16,8.50
2006,04,22,09,17,8.40
2006,04,22,09,18,8.30
2006,04,22,09,19,8.20
2006,04,22,09,20,8.30
2006,04,22,09,21,8.30
2006,04,22,09,22,8.40
2006,04,22,09,23,8.40
2006,04,22,09,24,8.50
2006,04,22,09,25,8.50
2006,04,22,09,26,8.60
2006,04,22,09,27,8.70
2006,04,22,09,28,8.70
2006,04,22,09,29,8.70
2006,04,22,09,30,8.70
2006,04,22,09,31,8.80
2006,04,22,09,32,8.80
2006,04,22,09,33,8.90
2006,04,22,09,34,8.90
2006,04,22,09,35,8.80
2006,04,22,09,36,8.90
2006,04,22,09,37,9.00
2006,04,22,09,38,9.00
2006,04,22,09,39,9.00
2006,04,22,09,40,9.00
2006,04,22,09,41,9.00
2006,04,22,09,42,9.00
2006,04,22,09,43,9.00
2006,04,22,09,44,9.00
2006,04,22,09,45,9.00
2006,04,22,09,46,9.00
2006,04,22,09,47,9.00
2006,04,22,09,48,9.00
2006,04,22,09,49,9.10
2006,04,22,09,50,9.20
2006,04,22,09,51,9.20
2006,04,22,09,52,9.20
2006,04,22,09,53,9.10
2006,04,22,09,54,9.10
2006,04,22,09,55,9.10
2006,04,22,09,56,9.00
2006,04,22,09,57,8.90
2006,04,22,09,58,8.90
2006,04,22,09,59,8.80
2006,04,22,10,00,8.90
2006,04,22,10,01,8.90
2006,04,22,10,02,8.90
2006,04,22,10,03,8.90
2006,04,22,10,04,8.90
2006,04,22,10,05,9.00
2006,04,22,10,06,9.00
2006,04,22,10,07,9.10
2006,04,22,10,08,9.10
2006,04,22,10,09,9.10
2006,04,22,10,10,9.10
2006,04,22,10,11,9.10
2006,04,22,10,12,9.10
2006,04,22,10,13,9.20
2006,04,22,10,14,9.20
2006,04,22,10,15,9.00
2006,04,22,10,16,8.90
2006,04,22,10,17,8.90
2006,04,22,10,18,8.90
2006,04,22,10,19,8.90
2006,04,22,10,20,9.00
2006,04,22,10,21,9.10
2006,04,22,10,22,9.20
2006,04,22,10,23,9.30
2006,04,22,10,24,9.30
2006,04,22,10,25,9.20
2006,04,22,10,26,9.10
2006,04,22,10,27,9.10
2006,04,22,10,28,9.10
2006,04,22,10,29,9.10
2006,04,22,10,30,9.10
2006,04,22,10,31,9.10
2006,04,22,10,32,9.10
2006,04,22,10,33,9.10
2006,04,22,10,34,9.10
2006,04,22,10,35,9.10
2006,04,22,10,36,9.20
2006,04,22,10,37,9.20
2006,04,22,10,38,9.20
2006,04,22,10,39,9.20
2006,04,22,10,40,9.20
2006,04,22,10,41,9.30
2006,04,22,10,42,9.40
2006,04,22,10,43,9.40
2006,04,22,10,44,9.40
2006,04,22,10,45,9.40
2006,04,22,10,46,9.40
2006,04,22,10,47,9.40
2006,04,22,10,48,9.40
2006,04,22,10,49,9.40
2006,04,22,10,50,9.30
2006,04,22,10,51,9.40
2006,04,22,10,52,9.50
2006,04,22,10,53,9.60
2006,04,22,10,54,9.70
2006,04,22,10,55,9.60
2006,04,22,10,56,9.50
2006,04,22,10,57,9.40
2006,04,22,10,58,9.40
2006,04,22,10,59,9.40
2006,04,22,11,00,9.30
2006,04,22,11,01,9.30
2006,04,22,11,02,9.30
2006,04,22,11,03,9.30
2006,04,22,11,04,9.30
2006,04,22,11,05,9.30
2006,04,22,11,06,9.40
2006,04,22,11,07,9.40
2006,04,22,11,08,9.40
2006,04,22,11,09,9.50
2006,04,22,11,10,9.60
2006,04,22,11,11,9.70
2006,04,22,11,12,9.90
2006,04,22,11,13,9.90
2006,04,22,11,14,9.90
2006,04,22,11,15,10.10
2006,04,22,11,16,9.90
2006,04,22,11,17,9.90
2006,04,22,11,18,9.90
2006,04,22,11,19,9.70
2006,04,22,11,20,9.70
2006,04,22,11,21,9.60
2006,04,22,11,22,9.50
2006,04,22,11,23,9.50
2006,04,22,11,24,9.50
2006,04,22,11,25,9.50
2006,04,22,11,26,9.60
2006,04,22,11,27,9.60
2006,04,22,11,28,9.70
2006,04,22,11,29,9.70
2006,04,22,11,30,9.70
2006,04,22,11,31,9.70
2006,04,22,11,32,9.70
2006,04,22,11,33,9.70
2006,04,22,11,34,9.70
2006,04,22,11,35,9.70
2006,04,22,11,36,9.80
2006,04,22,11,37,9.80
2006,04,22,11,38,9.80
2006,04,22,11,39,9.90
2006,04,22,11,40,9.90
2006,04,22,11,41,9.80
2006,04,22,11,42,9.70
2006,04,22,11,43,9.70
2006,04,22,11,44,9.70
2006,04,22,11,45,9.80
2006,04,22,11,46,9.90
2006,04,22,11,47,9.90
2006,04,22,11,48,9.90
2006,04,22,11,49,9.80
2006,04,22,11,50,9.70
2006,04,22,11,51,9.70
2006,04,22,11,52,9.70
2006,04,22,11,53,9.70
2006,04,22,11,54,9.80
2006,04,22,11,55,9.80
2006,04,22,11,56,9.80
2006,04,22,11,57,9.80
2006,04,22,11,58,9.90
2006,04,22,11,59,9.90
2006,04,22,12,00,9.80
2006,04,22,12,01,9.80
2006,04,22,12,02,9.70
2006,04,22,12,03,9.70
2006,04,22,12,04,9.60
2006,04,22,12,05,9.60
2006,04,22,12,06,9.70
2006,04,22,12,07,9.70
2006,04,22,12,08,9.70
2006,04,22,12,09,9.80
2006,04,22,12,10,9.80
2006,04,22,12,11,9.90
2006,04,22,12,12,9.90
2006,04,22,12,13,10.10
2006,04,22,12,14,10.20
2006,04,22,12,15,10.30
2006,04,22,12,16,10.30
2006,04,22,12,17,10.20
2006,04,22,12,18,10.20
2006,04,22,12,19,10.30
2006,04,22,12,20,10.20
2006,04,22,12,21,10.20
2006,04,22,12,22,10.20
2006,04,22,12,23,10.30
2006,04,22,12,24,10.30
2006,04,22,12,25,10.40
2006,04,22,12,26,10.40
2006,04,22,12,27,10.30
2006,04,22,12,28,10.40
2006,04,22,12,29,10.60
2006,04,22,12,30,10.60
2006,04,22,12,31,10.50
2006,04,22,12,32,10.30
2006,04,22,12,33,10.20
2006,04,22,12,34,10.20
2006,04,22,12,35,10.10
2006,04,22,12,36,10.00
2006,04,22,12,37,9.90
2006,04,22,12,38,10.10
2006,04,22,12,39,10.10
2006,04,22,12,40,10.00
2006,04,22,12,41,10.00
2006,04,22,12,42,10.10
2006,04,22,12,43,10.20
2006,04,22,12,44,10.20
2006,04,22,12,45,10.10
2006,04,22,12,46,10.30
2006,04,22,12,47,10.40
2006,04,22,12,48,10.60
2006,04,22,12,49,10.60
2006,04,22,12,50,10.60
2006,04,22,12,51,10.70
2006,04,22,12,52,10.70
2006,04,22,12,53,10.70
2006,04,22,12,54,10.70
2006,04,22,12,55,10.80
2006,04,22,12,56,10.90
2006,04,22,12,57,10.90
2006,04,22,12,58,10.90
2006,04,22,12,59,10.80
2006,04,22,13,00,10.80
2006,04,22,13,01,10.70
2006,04,22,13,02,10.70
2006,04,22,13,03,10.80
2006,04,22,13,04,10.90
2006,04,22,13,05,10.90
2006,04,22,13,06,10.90
2006,04,22,13,07,11.00
2006,04,22,13,08,11.10
2006,04,22,13,09,11.20
2006,04,22,13,10,11.40
2006,04,22,13,11,11.40
2006,04,22,13,12,11.50
2006,04,22,13,13,11.50
2006,04,22,13,14,11.30
2006,04,22,13,15,11.30
2006,04,22,13,16,11.10
2006,04,22,13,17,11.10
2006,04,22,13,18,10.90
2006,04,22,13,19,10.90
2006,04,22,13,20,10.90
2006,04,22,13,21,10.90
2006,04,22,13,22,11.10
2006,04,22,13,23,11.30
2006,04,22,13,24,11.40
2006,04,22,13,25,11.40
2006,04,22,13,26,11.50
2006,04,22,13,27,11.60
2006,04,22,13,28,11.60
2006,04,22,13,29,11.60
2006,04,22,13,30,11.70
2006,04,22,13,31,11.70
2006,04,22,13,32,11.80
2006,04,22,13,33,11.80
2006,04,22,13,34,11.90
2006,04,22,13,35,12.00
2006,04,22,13,36,12.10
2006,04,22,13,37,12.10
2006,04,22,13,38,12.10
2006,04,22,13,39,12.20
2006,04,22,13,40,12.20
2006,04,22,13,41,12.20
2006,04,22,13,42,12.10
2006,04,22,13,43,12.00
2006,04,22,13,44,12.00
2006,04,22,13,45,12.00
2006,04,22,13,46,12.00
2006,04,22,13,47,12.10
2006,04,22,13,48,12.00
2006,04,22,13,49,12.00
2006,04,22,13,50,12.10
2006,04,22,13,51,12.20
2006,04,22,13,52,12.20
2006,04,22,13,53,12.30
2006,04,22,13,54,12.30
2006,04,22,13,55,12.20
2006,04,22,13,56,12.20
2006,04,22,13,57,12.30
2006,04,22,13,58,12.40
2006,04,22,13,59,12.30
2006,04,22,14,00,12.20
2006,04,22,14,01,12.20
2006,04,22,14,02,12.20
2006,04,22,14,03,12.20
2006,04,22,14,04,12.20
2006,04,22,14,05,12.20
2006,04,22,14,06,12.30
2006,04,22,14,07,12.30
2006,04,22,14,08,12.40
2006,04,22,14,09,12.60
2006,04,22,14,10,12.80
2006,04,22,14,11,12.90
2006,04,22,14,12,12.90
2006,04,22,14,13,12.90
2006,04,22,14,14,12.80
2006,04,22,14,15,12.80
2006,04,22,14,16,12.90
2006,04,22,14,17,12.90
2006,04,22,14,18,12.80
2006,04,22,14,19,12.90
2006,04,22,14,20,13.00
2006,04,22,14,21,13.10
2006,04,22,14,22,13.10
2006,04,22,14,23,13.00
2006,04,22,14,24,12.90
2006,04,22,14,25,13.10
2006,04,22,14,26,13.00
2006,04,22,14,27,13.00
2006,04,22,14,28,12.90
2006,04,22,14,29,12.90
2006,04,22,14,30,12.90
2006,04,22,14,31,13.00
2006,04,22,14,32,13.10
2006,04,22,14,33,13.00
2006,04,22,14,34,13.00
2006,04,22,14,35,12.80
2006,04,22,14,36,12.60
2006,04,22,14,37,12.50
2006,04,22,14,38,12.50
2006,04,22,14,39,12.60
2006,04,22,14,40,12.60
2006,04,22,14,41,12.60
2006,04,22,14,42,12.60
2006,04,22,14,43,12.60
2006,04,22,14,44,12.40
2006,04,22,14,45,12.40
2006,04,22,14,46,12.30
2006,04,22,14,47,12.30
2006,04,22,14,48,12.10
2006,04,22,14,49,12.10
2006,04,22,14,50,12.20
2006,04,22,14,51,12.40
2006,04,22,14,52,12.50
2006,04,22,14,53,12.60
2006,04,22,14,54,12.70
2006,04,22,14,55,12.80
2006,04,22,14,56,12.70
2006,04,22,14,57,12.70
2006,04,22,14,58,12.70
2006,04,22,14,59,12.90
2006,04,22,15,00,13.00
2006,04,22,15,01,13.00
2006,04,22,15,02,13.20
2006,04,22,15,03,13.30
2006,04,22,15,04,13.30
2006,04,22,15,05,13.40
2006,04,22,15,06,13.60
2006,04,22,15,07,13.70
2006,04,22,15,08,13.90
2006,04,22,15,09,13.90
2006,04,22,15,10,13.90
2006,04,22,15,11,13.80
2006,04,22,15,12,13.70
2006,04,22,15,13,13.80
2006,04,22,15,14,13.90
2006,04,22,15,15,14.00
2006,04,22,15,16,14.10
2006,04,22,15,17,14.30
2006,04,22,15,18,14.40
2006,04,22,15,19,14.50
2006,04,22,15,20,14.60
2006,04,22,15,21,14.60
2006,04,22,15,22,14.60
2006,04,22,15,23,14.60
2006,04,22,15,24,14.60
2006,04,22,15,25,14.60
2006,04,22,15,26,14.60
2006,04,22,15,27,14.50
2006,04,22,15,28,14.50
2006,04,22,15,29,14.40
2006,04,22,15,30,14.40
2006,04,22,15,31,14.40
2006,04,22,15,32,14.50
2006,04,22,15,33,14.60
2006,04,22,15,34,14.50
2006,04,22,15,35,14.50
2006,04,22,15,36,14.60
2006,04,22,15,37,14.70
2006,04,22,15,38,14.80
2006,04,22,15,39,14.90
2006,04,22,15,40,14.90
2006,04,22,15,41,14.80
2006,04,22,15,42,14.80
2006,04,22,15,43,14.70
2006,04,22,15,44,14.70
2006,04,22,15,45,14.70
2006,04,22,15,46,14.80
2006,04,22,15,47,14.90
2006,04,22,15,48,15.00
2006,04,22,15,49,15.00
2006,04,22,15,50,15.00
2006,04,22,15,51,14.90
2006,04,22,15,52,14.90
2006,04,22,15,53,14.90
2006,04,22,15,54,15.00
2006,04,22,15,55,15.00
2006,04,22,15,56,15.00
2006,04,22,15,57,15.00
2006,04,22,15,58,15.10
2006,04,22,15,59,15.20
2006,04,22,16,00,15.10
2006,04,22,16,01,15.10
2006,04,22,16,02,15.10
2006,04,22,16,03,15.10
2006,04,22,16,04,15.10
2006,04,22,16,05,15.10
2006,04,22,16,06,15.10
2006,04,22,16,07,15.00
2006,04,22,16,08,14.90
2006,04,22,16,09,14.80
2006,04,22,16,10,14.80
2006,04,22,16,11,14.80
2006,04,22,16,12,14.80
2006,04,22,16,13,14.80
2006,04,22,16,14,14.80
2006,04,22,16,15,15.00
2006,04,22,16,16,15.00
2006,04,22,16,17,15.00
2006,04,22,16,18,15.00
2006,04,22,16,19,14.90
2006,04,22,16,20,14.90
2006,04,22,16,21,14.90
2006,04,22,16,22,15.00
2006,04,22,16,23,14.90
2006,04,22,16,24,14.90
2006,04,22,16,25,15.00
2006,04,22,16,26,15.10
2006,04,22,16,27,15.20
2006,04,22,16,28,15.20
2006,04,22,16,29,15.20
2006,04,22,16,30,15.20
2006,04,22,16,31,15.20
2006,04,22,16,32,15.20
2006,04,22,16,33,15.20
2006,04,22,16,34,15.10
2006,04,22,16,35,15.10
2006,04,22,16,36,15.10
2006,04,22,16,37,15.00
2006,04,22,16,38,15.00
2006,04,22,16,39,14.90
2006,04,22,16,40,15.00
2006,04,22,16,41,15.10
2006,04,22,16,42,15.10
2006,04,22,16,43,15.00
2006,04,22,16,44,15.00
2006,04,22,16,45,14.90
2006,04,22,16,46,14.80
2006,04,22,16,47,14.40
2006,04,22,16,48,13.90
2006,04,22,16,49,13.40
2006,04,22,16,50,13.00
2006,04,22,16,51,12.70
2006,04,22,16,52,12.70
2006,04,22,16,53,12.70
2006,04,22,16,54,12.80
2006,04,22,16,55,12.80
2006,04,22,16,56,12.80
2006,04,22,16,57,12.90
2006,04,22,16,58,13.00
2006,04,22,16,59,13.30
2006,04,22,17,00,13.50
2006,04,22,17,01,13.70
2006,04,22,17,02,13.80
2006,04,22,17,03,13.90
2006,04,22,17,04,14.00
2006,04,22,17,05,14.20
2006,04,22,17,06,14.50
2006,04,22,17,07,14.60
2006,04,22,17,08,14.80
2006,04,22,17,09,14.80
2006,04,22,17,10,14.70
2006,04,22,17,11,14.50
2006,04,22,17,12,14.20
2006,04,22,17,13,13.90
2006,04,22,17,14,13.80
2006,04,22,17,15,13.60
2006,04,22,17,16,13.40
2006,04,22,17,17,13.30
2006,04,22,17,18,13.20
2006,04,22,17,19,13.10
2006,04,22,17,20,13.10
2006,04,22,17,21,13.10
2006,04,22,17,22,13.10
2006,04,22,17,23,13.10
2006,04,22,17,24,13.20
2006,04,22,17,25,13.20
2006,04,22,17,26,13.30
2006,04,22,17,27,13.30
2006,04,22,17,28,13.30
2006,04,22,17,29,13.30
2006,04,22,17,30,13.40
2006,04,22,17,31,13.40
2006,04,22,17,32,13.30
2006,04,22,17,33,13.30
2006,04,22,17,34,13.20
2006,04,22,17,35,13.20
2006,04,22,17,36,13.10
2006,04,22,17,37,13.10
2006,04,22,17,38,13.00
2006,04,22,17,39,13.10
2006,04,22,17,40,13.10
2006,04,22,17,41,13.00
2006,04,22,17,42,13.00
2006,04,22,17,43,13.10
2006,04,22,17,44,13.10
2006,04,22,17,45,13.10
2006,04,22,17,46,13.20
2006,04,22,17,47,13.20
2006,04,22,17,48,13.20
2006,04,22,17,49,13.30
2006,04,22,17,50,13.30
2006,04,22,17,51,13.30